Weather History for KDSM - July, 2012

Change the Weather History Date:

Wednesday, July 4, 2012

  Actual Average Record
Temperature  
Mean Temperature 90 °F 76 °F  
Max Temperature 101 °F 86 °F 109 °F (1936)
Min Temperature 78 °F 66 °F 48 °F (1967)
Degree Days  
Heating Degree Days 0 0  
Month to date heating degree days 0 0  
Since 1 June heating degree days 6 17  
Since 1 July heating degree days 0 0  
Cooling Degree Days 25 11  
Month to date cooling degree days 91 44  
Year to date cooling degree days 634 341  
Since 1 June cooling degree days 426 265  
Growing Degree Days 39 (Base 50)    
Moisture  
Dew Point 66 °F    
Average Humidity 49    
Maximum Humidity 69    
Minimum Humidity 29    
Precipitation  
Precipitation 0.00 in 0.16 in 1.20 in (1928)
Month to date precipitation 0.00 0.62  
Year to date precipitation 15.15 18.74  
Snow  
Snow 0.00 in 0.00 in - ()
Month to date snowfall 0.0 0.0  
Since 1 June snowfall 0.0 0.0  
Since 1 July snowfall 0.0 0.0  
Snow Depth 0.00 in    
Sea Level Pressure  
Sea Level Pressure 29.82 in    
Wind  
Wind Speed 9 mph (SSW)    
Max Wind Speed 20 mph    
Max Gust Speed 25 mph    
Visibility 10 miles    
Events      
T = Trace of Precipitation, MM = Missing Value Source: NWS Daily Summary

Daily Weather History Graph

Daily Weather History Graph

Search for Another Location

Airport or City:

Trip Planner

Search our weather history database for the weather conditions in past years. The results will help you decide how hot, cold, wet, or windy it might be!

Date:

Astronomy

Jul. 04, 2012 Rise Set
Actual Time 5:46 AM CDT 8:51 PM CDT
Civil Twilight 5:12 AM CDT 9:25 PM CDT
Nautical Twilight 4:29 AM CDT 10:08 PM CDT
Astronomical Twilight 3:38 AM CDT 10:59 PM CDT
Moon 9:29 PM CDT (7/4) 6:50 AM CDT (7/4)
Length of Visible Light 16h 12m
Length of Day
15h 05m
Full, 99% of the Moon is Illuminated
Jul 4
Full
Jul 10
Last Quarter
Jul 18
New
Jul 26
First Quarter
Aug 1
Full

Hourly Weather History & Observations

Time (CDT) Temp. Heat Index Dew Point Humidity Pressure Visibility Wind Dir Wind Speed Gust Speed Precip Events Conditions
12:54 AM 81.0 °F 84.4 °F 70.0 °F 69% 29.80 in 10.0 mi South 5.8 mph - N/A   Clear
1:54 AM 80.1 °F 82.9 °F 69.1 °F 69% 29.79 in 10.0 mi South 6.9 mph - N/A   Clear
2:54 AM 81.0 °F 84.1 °F 69.1 °F 67% 29.80 in 10.0 mi South 9.2 mph - N/A   Clear
3:54 AM 81.0 °F 83.8 °F 68.0 °F 65% 29.80 in 10.0 mi South 8.1 mph - N/A   Clear
4:54 AM 80.1 °F 82.3 °F 66.9 °F 64% 29.81 in 10.0 mi South 6.9 mph - N/A   Clear
5:54 AM 78.1 °F - 66.9 °F 68% 29.82 in 10.0 mi South 5.8 mph - N/A   Partly Cloudy
6:54 AM 79.0 °F - 66.9 °F 66% 29.83 in 10.0 mi South 5.8 mph - N/A   Clear
7:54 AM 82.9 °F 85.0 °F 66.0 °F 56% 29.84 in 10.0 mi SSW 6.9 mph - N/A   Partly Cloudy
8:54 AM 86.0 °F 87.3 °F 64.0 °F 48% 29.85 in 10.0 mi SW 10.4 mph - N/A   Partly Cloudy
9:54 AM 90.0 °F 91.7 °F 64.9 °F 43% 29.85 in 10.0 mi SW 10.4 mph - N/A   Partly Cloudy
10:54 AM 93.0 °F 95.0 °F 64.9 °F 39% 29.84 in 10.0 mi SW 11.5 mph - N/A   Partly Cloudy
11:54 AM 93.9 °F 97.0 °F 66.0 °F 40% 29.84 in 10.0 mi SW 12.7 mph - N/A   Partly Cloudy
12:54 PM 97.0 °F 101.0 °F 66.9 °F 37% 29.84 in 10.0 mi SSW 15.0 mph 19.6 mph N/A   Clear
1:54 PM 98.1 °F 101.2 °F 64.9 °F 34% 29.84 in 10.0 mi SW 12.7 mph - N/A   Clear
2:54 PM 100.0 °F 104.2 °F 66.0 °F 33% 29.82 in 10.0 mi SSW 12.7 mph 18.4 mph N/A   Partly Cloudy
3:54 PM 100.0 °F 103.0 °F 64.0 °F 31% 29.81 in 10.0 mi SW 15.0 mph 21.9 mph N/A   Partly Cloudy
4:54 PM 100.0 °F 101.8 °F 63.0 °F 29% 29.80 in 10.0 mi SW 11.5 mph - N/A   Clear
5:54 PM 99.0 °F 101.7 °F 64.0 °F 32% 29.79 in 10.0 mi South 12.7 mph - N/A   Clear
6:54 PM 97.0 °F 98.3 °F 63.0 °F 32% 29.79 in 10.0 mi SSW 10.4 mph - N/A   Clear
7:54 PM 93.9 °F 96.1 °F 64.9 °F 38% 29.80 in 10.0 mi SSW 5.8 mph - N/A   Clear
8:54 PM 90.0 °F 92.4 °F 66.0 °F 45% 29.81 in 10.0 mi South 4.6 mph - N/A   Partly Cloudy
9:54 PM 88.0 °F 90.7 °F 66.9 °F 49% 29.82 in 10.0 mi SSE 6.9 mph - N/A   Partly Cloudy
10:54 PM 84.9 °F 87.6 °F 66.9 °F 55% 29.82 in 10.0 mi SSE 6.9 mph - N/A   Clear
11:54 PM 84.0 °F 86.3 °F 66.0 °F 55% 29.83 in 10.0 mi SSE 6.9 mph - N/A   Clear